Preview of NWS' New Version of Forecast
This preview is not operational and should not be used for support decisions.

Regional Weather Roundup (RWR)

Issued by National Weather Service (NWS)

                            
000
ASUS43 KMKX 211810
RWRWI 

WISCONSIN REGIONAL WEATHER ROUNDUP
NATIONAL WEATHER SERVICE MILWAUKEE/SULLIVAN WI
1200 PM CST THU FEB 21 2019

NOTE: "FAIR" INDICATES FEW OR NO CLOUDS BELOW 12,000 FEET WITH NO
SIGNIFICANT WEATHER AND/OR OBSTRUCTIONS TO VISIBILITY.

WIZ001-002-006>008-014>016-023>028-211900-
NORTHWEST WISCONSIN
  
CITY           SKY/WX    TMP DP  RH WIND       PRES   REMARKS
SUPERIOR ARPT  FAIR      28  17  64 NW3       30.08R                  
6HR MIN TEMP:  16; 6HR MAX TEMP:  27;                                

ASHLAND        PTSUNNY   25  18  74 W9        30.06R WCI  15          
6HR MIN TEMP:  16; 6HR MAX TEMP:  26;                                

HAYWARD        CLOUDY    21  16  81 VRB5      30.07R HAZE    WCI  15  
6HR MIN TEMP:  19; 6HR MAX TEMP:  22; 6HR PCP: TRACE;                

SIREN          CLOUDY    21  16  79 SW7       30.11R WCI  13          
6HR MIN TEMP:  13; 6HR MAX TEMP:  21;                                

CUMBERLAND     LGT SNOW  19  12  73 SW9       30.10R WCI   9          
RICE LAKE      LGT SNOW  19   8  61 SW7       30.13R WCI  10          
6HR MIN TEMP:  13; 6HR MAX TEMP:  19;                                

CHETEK         CLOUDY    19  13  76 W3        30.12R                  
6HR MIN TEMP:  11; 6HR MAX TEMP:  19;                                

LADYSMITH      LGT SNOW  19  13  77 SW10      30.10R WCI   8          
6HR MIN TEMP:  15; 6HR MAX TEMP:  19;                                

EAU CLAIRE     FAIR      17  11  77 SW12      30.14R WCI   4          
6HR MIN TEMP:  10; 6HR MAX TEMP:  17; 6HR PCP: TRACE;                

MENOMONIE      PTSUNNY   16   8  70 SW6       30.15R WCI   8          
6HR MIN TEMP:   8; 6HR MAX TEMP:  17;                                

NEW RICHMOND   CLOUDY    20  12  72 SW8       30.14R WCI  10          
6HR MIN TEMP:  11; 6HR MAX TEMP:  20;                                

OSCEOLA        CLOUDY    19  15  83 SW7       30.17R WCI  10          
6HR MIN TEMP:  13; 6HR MAX TEMP:  19;                                

$$
 
WIZ003>005-009-010-017-018-211900-
NORTH CENTRAL WISCONSIN
  
CITY           SKY/WX    TMP DP  RH WIND       PRES   REMARKS
MANITOWISH WTR NOT AVBL                                               
ARBOR VITAE    LGT SNOW  23  18  80 W9        30.00R WCI  13          
6HR MIN TEMP:  22; 6HR MAX TEMP:  23;                                

WOODRUFF       LGT SNOW  23  18  80 W9        30.00R WCI  13          
6HR MIN TEMP:  22; 6HR MAX TEMP:  23;                                

RHINELANDER    CLOUDY    24  15  68 W12       30.01R WCI  13          
6HR MIN TEMP:  20; 6HR MAX TEMP:  24; 6HR PCP: TRACE;                

EAGLE RIVER    CLOUDY    22  16  76 W10       29.99R WCI  11          
6HR MIN TEMP:  20; 6HR MAX TEMP:  23;                                

LAND O LAKES   CLOUDY    25  19  76 W9        29.99R WCI  15          
6HR MIN TEMP:  23; 6HR MAX TEMP:  25;                                

PHILLIPS       FLURRIES  18  13  80 SW8       30.04R WCI   8          
6HR MIN TEMP:  15; 6HR MAX TEMP:  19;                                

TOMAHAWK       PTSUNNY   21  13  71 W9        30.05R WCI  10          
6HR MIN TEMP:  18; 6HR MAX TEMP:  21;                                

MEDFORD        FLURRIES  18  11  74 W8        30.07R WCI   8          
6HR MIN TEMP:  11; 6HR MAX TEMP:  18;                                

MERRILL        FAIR      25  13  62 SW9       30.06R WCI  15          
6HR MIN TEMP:  17; 6HR MAX TEMP:  24;                                

$$
 
WIZ029-030-035-036-043>047-211900-
CENTRAL WISCONSIN
  
CITY           SKY/WX    TMP DP  RH WIND       PRES   REMARKS
WAUSAU         FAIR      19  10  68 W12       30.06R WCI   7          
6HR MIN TEMP:  14; 6HR MAX TEMP:  19; 6HR PCP: TRACE;                

MOSINEE        SUNNY     19  10  68 W8        30.08R WCI   9          
MARSHFIELD     FAIR      18  11  74 W9        30.09R WCI   7          
6HR MIN TEMP:  10; 6HR MAX TEMP:  18; 6HR PCP: TRACE;                

STEVENS POINT  FAIR      19  10  68 W8G20     30.10S WCI   8          
6HR MIN TEMP:  12; 6HR MAX TEMP:  19;                                

WAUPACA        FAIR      27  13  55 W9        30.11R WCI  18          
6HR MIN TEMP:  18; 6HR MAX TEMP:  27;                                

WAUTOMA        FAIR      27  14  58 W13       30.12R WCI  16          
6HR MIN TEMP:  13; 6HR MAX TEMP:  27;                                

WISC RAPIDS    FAIR      20   9  62 W9        30.12R WCI   9          
6HR MIN TEMP:  11; 6HR MAX TEMP:  20; 6HR PCP: TRACE;                

CAMP DOUGLAS   NOT AVBL                                               
$$
 
WIZ011>013-019>022-031-037>040-048>050-211900-
NORTHEAST WISCONSIN
  
CITY           SKY/WX    TMP DP  RH WIND       PRES   REMARKS
ANTIGO         FAIR      22  13  66 W14       30.03R WCI   9          
6HR MIN TEMP:  16; 6HR MAX TEMP:  22;                                

SHAWANO        FAIR      33  15  48 W7        30.07S WCI  26          
6HR MIN TEMP:  22; 6HR MAX TEMP:  32;                                

OCONTO         FAIR      28  15  60 W12       30.06R WCI  17          
6HR MIN TEMP:  19; 6HR MAX TEMP:  28;                                

STURGEON BAY   FAIR      26  16  65 W15       30.03R WCI  14          
6HR MIN TEMP:  19; 6HR MAX TEMP:  26; 6HR PCP: TRACE;                

GREEN BAY      FAIR      26  13  57 W14       30.09R WCI  14          
6HR MIN TEMP:  20; 6HR MAX TEMP:  26;                                

MANITOWOC      FAIR      25  14  63 W17       30.10R WCI  12          
6HR MIN TEMP:  19; 6HR MAX TEMP:  26;                                

APPLETON       SUNNY     25  10  54 W14       30.07R WCI  13          
CLINTONVILLE   FAIR      26  13  58 W9        30.09R WCI  16          
6HR MIN TEMP:  17; 6HR MAX TEMP:  25;                                

OSHKOSH        FAIR      24  12  60 W8        30.10R WCI  15          
6HR MIN TEMP:  17; 6HR MAX TEMP:  24;                                

$$
 
WIZ032>034-041-042-053>061-211900-
SOUTHWEST WISCONSIN
  
CITY           SKY/WX    TMP DP  RH WIND       PRES   REMARKS
LA CROSSE      FAIR      22  10  60 CALM      30.19R                  
6HR MIN TEMP:   8; 6HR MAX TEMP:  24;                                

SPARTA         FAIR      23  11  61 SW6       30.16R WCI  15          
6HR MIN TEMP:  11; 6HR MAX TEMP:  23;                                

VIROQUA        FAIR      24  13  63 W5        30.14R WCI  18          
6HR MIN TEMP:   9; 6HR MAX TEMP:  24;                                

BOSCOBEL       FAIR      25  10  53 W8        30.21R WCI  16          
6HR MIN TEMP:  12; 6HR MAX TEMP:  25;                                

PRAIRIE DU CHI FAIR      20   9  61 W12       30.23R WCI   8          
6HR MIN TEMP:  11; 6HR MAX TEMP:  20;                                

PLATTEVILLE    FAIR      24  15  70 W12       30.19R WCI  13          
6HR MIN TEMP:  11; 6HR MAX TEMP:  24;                                

$$

WIZ056-057-062-063-064-067-068-211900-
SOUTH CENTRAL WISCONSIN
  
CITY           SKY/WX    TMP DP  RH WIND       PRES   REMARKS
REEDSBURG      FAIR      23  11  60 W8        30.15R WCI  14          
6HR MIN TEMP:  14; 6HR MAX TEMP:  23;                                

BARABOO/DELLS  FAIR      24  11  57 W10       30.14R WCI  13          
6HR MIN TEMP:  13; 6HR MAX TEMP:  24;                                

LONE ROCK      MIX PCPN  24  13  62 W9        30.19R WCI  14          
6HR MIN TEMP:  13; 6HR MAX TEMP:  24; 6HR PCP: TRACE;                

MINERAL POINT  FAIR      23  14  68 W10       30.17R WCI  12          
MADISON        FAIR      24  12  60 VRB5      30.16R WCI  18          
6HR MIN TEMP:  13; 6HR MAX TEMP:  24;                                

MIDDLETON      FAIR      28  14  57 S9        30.16R WCI  19          
6HR MIN TEMP:  17; 6HR MAX TEMP:  28;                                

WATERTOWN      FAIR      25  14  64 SW13      30.15R WCI  13          
6HR MIN TEMP:  17; 6HR MAX TEMP:  25;                                

MONROE         FAIR      25  13  61 MISG      30.17R                  
6HR MIN TEMP:  17; 6HR MAX TEMP:  25;                                

JANESVILLE     MOSUNNY   27  16  63 W13       30.18R WCI  16          
$$
 
WIZ051-052-058>065-066-070>072-211900-
SOUTHEAST WISCONSIN
  
CITY           SKY/WX    TMP DP  RH WIND       PRES   REMARKS
MILWAUKEE      FAIR      29  13  51 W13G21    30.15R WCI  19          
6HR MIN TEMP:  22; 6HR MAX TEMP:  30;                                

WAUKESHA       SUNNY     25  12  58 SW9G17    30.15R WCI  15          
MILWAUKEE/TIMM SUNNY     27  10  50 W12       30.15R WCI  16          
RACINE         FAIR      27  14  58 W14G21    30.17S WCI  16          
6HR MIN TEMP:  22; 6HR MAX TEMP:  27;                                

KENOSHA        NOT AVBL                                               
FOND DU LAC    FAIR      23  12  62 W13G18    30.12R WCI  11          
6HR MIN TEMP:  16; 6HR MAX TEMP:  23;                                

SHEBOYGAN      FAIR      24  14  65 W13       30.11R WCI  12          
6HR MIN TEMP:  17; 6HR MAX TEMP:  24;                                

WEST BEND      FAIR      27  14  59 W14       30.12R WCI  15          
JUNEAU         FAIR      22  13  67 SW13      30.15R WCI  10          
6HR MIN TEMP:  12; 6HR MAX TEMP:  22;                                

$$

LSZ147-162-211900-
LAKE SUPERIOR
  
STATION/POSITION TIME  TEMP    WIND        PRES    WAVE
                       AIR SEA DIR/SP/G            HT/PER
                 (UTC) (F)     (DEG/KT/KT) (MB)    (FT/S)
DEVILS ISLAND    1800   23     260/ 15/ 17 1018.6R
SAXON HARBOR     1730   28     250/  4/ 10 1017.3R
$$
 
LMZ867-665-643>646-211900-
LAKE MICHIGAN
  
STATION/POSITION TIME  TEMP    WIND        PRES    WAVE
                       AIR SEA DIR/SP/G            HT/PER
                 (UTC) (F)     (DEG/KT/KT) (MB)    (FT/S)
CHAMBERS ISLAND  1540   26     230/  8/ 15 1014.2
NORTHPORT PIER   1740   29     240/  3/  9 1016.6R
KEWAUNEE LAKESHO 1742   24     270/ 13/ 19 1017.6R
SHEBOYGAN L